Year,Month,Day,Hour,Minute,Value (Times are PST for temperature in C)
2020,03,18,00,00,3.80
2020,03,18,00,01,3.80
2020,03,18,00,02,3.80
2020,03,18,00,03,3.80
2020,03,18,00,04,3.80
2020,03,18,00,05,3.80
2020,03,18,00,06,3.70
2020,03,18,00,07,3.70
2020,03,18,00,08,3.70
2020,03,18,00,09,3.70
2020,03,18,00,10,3.70
2020,03,18,00,11,3.70
2020,03,18,00,12,3.70
2020,03,18,00,13,3.70
2020,03,18,00,14,3.60
2020,03,18,00,15,3.60
2020,03,18,00,16,3.60
2020,03,18,00,17,3.60
2020,03,18,00,18,3.60
2020,03,18,00,19,3.60
2020,03,18,00,20,3.60
2020,03,18,00,21,3.60
2020,03,18,00,22,3.60
2020,03,18,00,23,3.60
2020,03,18,00,24,3.50
2020,03,18,00,25,3.50
2020,03,18,00,26,3.50
2020,03,18,00,27,3.50
2020,03,18,00,28,3.50
2020,03,18,00,29,3.40
2020,03,18,00,30,3.40
2020,03,18,00,31,3.40
2020,03,18,00,32,3.40
2020,03,18,00,33,3.40
2020,03,18,00,34,3.40
2020,03,18,00,35,3.40
2020,03,18,00,36,3.30
2020,03,18,00,37,3.30
2020,03,18,00,38,3.30
2020,03,18,00,39,3.30
2020,03,18,00,40,3.30
2020,03,18,00,41,3.30
2020,03,18,00,42,3.30
2020,03,18,00,43,3.30
2020,03,18,00,44,3.30
2020,03,18,00,45,3.30
2020,03,18,00,46,3.30
2020,03,18,00,47,3.30
2020,03,18,00,48,3.20
2020,03,18,00,49,3.20
2020,03,18,00,50,3.20
2020,03,18,00,51,3.20
2020,03,18,00,52,3.20
2020,03,18,00,53,3.20
2020,03,18,00,54,3.20
2020,03,18,00,55,3.20
2020,03,18,00,56,3.20
2020,03,18,00,57,3.20
2020,03,18,00,58,3.20
2020,03,18,00,59,3.20
2020,03,18,01,00,3.20
2020,03,18,01,01,3.20
2020,03,18,01,02,3.20
2020,03,18,01,03,3.10
2020,03,18,01,04,3.10
2020,03,18,01,05,3.10
2020,03,18,01,06,3.10
2020,03,18,01,07,3.10
2020,03,18,01,08,3.10
2020,03,18,01,09,3.10
2020,03,18,01,10,3.10
2020,03,18,01,11,3.10
2020,03,18,01,12,3.10
2020,03,18,01,13,3.10
2020,03,18,01,14,3.10
2020,03,18,01,15,3.10
2020,03,18,01,16,3.10
2020,03,18,01,17,3.10
2020,03,18,01,18,3.10
2020,03,18,01,19,3.10
2020,03,18,01,20,3.10
2020,03,18,01,21,3.10
2020,03,18,01,22,3.10
2020,03,18,01,23,3.10
2020,03,18,01,24,3.10
2020,03,18,01,25,3.00
2020,03,18,01,26,3.00
2020,03,18,01,27,3.00
2020,03,18,01,28,3.00
2020,03,18,01,29,3.00
2020,03,18,01,30,3.00
2020,03,18,01,31,3.00
2020,03,18,01,32,3.00
2020,03,18,01,33,3.00
2020,03,18,01,34,2.90
2020,03,18,01,35,2.90
2020,03,18,01,36,2.90
2020,03,18,01,37,2.90
2020,03,18,01,38,2.90
2020,03,18,01,39,2.90
2020,03,18,01,40,2.90
2020,03,18,01,41,2.90
2020,03,18,01,42,2.90
2020,03,18,01,43,2.80
2020,03,18,01,44,2.80
2020,03,18,01,45,2.80
2020,03,18,01,46,2.80
2020,03,18,01,47,2.80
2020,03,18,01,48,2.80
2020,03,18,01,49,2.80
2020,03,18,01,50,2.70
2020,03,18,01,51,2.70
2020,03,18,01,52,2.70
2020,03,18,01,53,2.70
2020,03,18,01,54,2.70
2020,03,18,01,55,2.70
2020,03,18,01,56,2.70
2020,03,18,01,57,2.70
2020,03,18,01,58,2.60
2020,03,18,01,59,2.60
2020,03,18,02,00,2.60
2020,03,18,02,01,2.60
2020,03,18,02,02,2.60
2020,03,18,02,03,2.60
2020,03,18,02,04,2.60
2020,03,18,02,05,2.60
2020,03,18,02,06,2.60
2020,03,18,02,07,2.50
2020,03,18,02,08,2.50
2020,03,18,02,09,2.50
2020,03,18,02,10,2.50
2020,03,18,02,11,2.40
2020,03,18,02,12,2.40
2020,03,18,02,13,2.40
2020,03,18,02,14,2.40
2020,03,18,02,15,2.40
2020,03,18,02,16,2.40
2020,03,18,02,17,2.40
2020,03,18,02,18,2.30
2020,03,18,02,19,2.30
2020,03,18,02,20,2.30
2020,03,18,02,21,2.30
2020,03,18,02,22,2.30
2020,03,18,02,23,2.30
2020,03,18,02,24,2.30
2020,03,18,02,25,2.30
2020,03,18,02,26,2.30
2020,03,18,02,27,2.20
2020,03,18,02,28,2.20
2020,03,18,02,29,2.20
2020,03,18,02,30,2.20
2020,03,18,02,31,2.20
2020,03,18,02,32,2.10
2020,03,18,02,33,2.10
2020,03,18,02,34,2.10
2020,03,18,02,35,2.10
2020,03,18,02,36,2.10
2020,03,18,02,37,2.10
2020,03,18,02,38,2.00
2020,03,18,02,39,2.00
2020,03,18,02,40,2.00
2020,03,18,02,41,2.00
2020,03,18,02,42,2.00
2020,03,18,02,43,1.90
2020,03,18,02,44,1.90
2020,03,18,02,45,1.90
2020,03,18,02,46,1.90
2020,03,18,02,47,1.90
2020,03,18,02,48,1.90
2020,03,18,02,49,1.90
2020,03,18,02,50,1.90
2020,03,18,02,51,1.80
2020,03,18,02,52,1.80
2020,03,18,02,53,1.80
2020,03,18,02,54,1.80
2020,03,18,02,55,1.80
2020,03,18,02,56,1.80
2020,03,18,02,57,1.80
2020,03,18,02,58,1.70
2020,03,18,02,59,1.70
2020,03,18,03,00,1.70
2020,03,18,03,01,1.70
2020,03,18,03,02,1.70
2020,03,18,03,03,1.70
2020,03,18,03,04,1.70
2020,03,18,03,05,1.60
2020,03,18,03,06,1.60
2020,03,18,03,07,1.60
2020,03,18,03,08,1.60
2020,03,18,03,09,1.60
2020,03,18,03,10,1.60
2020,03,18,03,11,1.60
2020,03,18,03,12,1.60
2020,03,18,03,13,1.60
2020,03,18,03,14,1.50
2020,03,18,03,15,1.50
2020,03,18,03,16,1.50
2020,03,18,03,17,1.50
2020,03,18,03,18,1.50
2020,03,18,03,19,1.50
2020,03,18,03,20,1.50
2020,03,18,03,21,1.40
2020,03,18,03,22,1.40
2020,03,18,03,23,1.40
2020,03,18,03,24,1.40
2020,03,18,03,25,1.40
2020,03,18,03,26,1.40
2020,03,18,03,27,1.40
2020,03,18,03,28,1.40
2020,03,18,03,29,1.40
2020,03,18,03,30,1.40
2020,03,18,03,31,1.40
2020,03,18,03,32,1.40
2020,03,18,03,33,1.30
2020,03,18,03,34,1.30
2020,03,18,03,35,1.30
2020,03,18,03,36,1.30
2020,03,18,03,37,1.30
2020,03,18,03,38,1.30
2020,03,18,03,39,1.30
2020,03,18,03,40,1.30
2020,03,18,03,41,1.30
2020,03,18,03,42,1.30
2020,03,18,03,43,1.30
2020,03,18,03,44,1.20
2020,03,18,03,45,1.20
2020,03,18,03,46,1.20
2020,03,18,03,47,1.20
2020,03,18,03,48,1.20
2020,03,18,03,49,1.20
2020,03,18,03,50,1.20
2020,03,18,03,51,1.20
2020,03,18,03,52,1.20
2020,03,18,03,53,1.20
2020,03,18,03,54,1.20
2020,03,18,03,55,1.10
2020,03,18,03,56,1.10
2020,03,18,03,57,1.10
2020,03,18,03,58,1.10
2020,03,18,03,59,1.10
2020,03,18,04,00,1.10
2020,03,18,04,01,1.10
2020,03,18,04,02,1.10
2020,03,18,04,03,1.10
2020,03,18,04,04,1.10
2020,03,18,04,05,1.10
2020,03,18,04,06,1.00
2020,03,18,04,07,1.00
2020,03,18,04,08,1.00
2020,03,18,04,09,1.00
2020,03,18,04,10,1.00
2020,03,18,04,11,1.00
2020,03,18,04,12,1.00
2020,03,18,04,13,1.00
2020,03,18,04,14,1.00
2020,03,18,04,15,1.00
2020,03,18,04,16,0.90
2020,03,18,04,17,0.90
2020,03,18,04,18,0.90
2020,03,18,04,19,0.90
2020,03,18,04,20,0.90
2020,03,18,04,21,0.90
2020,03,18,04,22,0.90
2020,03,18,04,23,0.90
2020,03,18,04,24,0.90
2020,03,18,04,25,0.90
2020,03,18,04,26,0.90
2020,03,18,04,27,0.90
2020,03,18,04,28,0.90
2020,03,18,04,29,0.80
2020,03,18,04,30,0.80
2020,03,18,04,31,0.80
2020,03,18,04,32,0.80
2020,03,18,04,33,0.80
2020,03,18,04,34,0.80
2020,03,18,04,35,0.80
2020,03,18,04,36,0.80
2020,03,18,04,37,0.80
2020,03,18,04,38,0.80
2020,03,18,04,39,0.80
2020,03,18,04,40,0.80
2020,03,18,04,41,0.80
2020,03,18,04,42,0.80
2020,03,18,04,43,0.80
2020,03,18,04,44,0.80
2020,03,18,04,45,0.80
2020,03,18,04,46,0.80
2020,03,18,04,47,0.80
2020,03,18,04,48,0.80
2020,03,18,04,49,0.80
2020,03,18,04,50,0.80
2020,03,18,04,51,0.80
2020,03,18,04,52,0.80
2020,03,18,04,53,0.70
2020,03,18,04,54,0.70
2020,03,18,04,55,0.70
2020,03,18,04,56,0.70
2020,03,18,04,57,0.70
2020,03,18,04,58,0.70
2020,03,18,04,59,0.70
2020,03,18,05,00,0.70
2020,03,18,05,01,0.70
2020,03,18,05,02,0.70
2020,03,18,05,03,0.70
2020,03,18,05,04,0.70
2020,03,18,05,05,0.70
2020,03,18,05,06,0.60
2020,03,18,05,07,0.60
2020,03,18,05,08,0.60
2020,03,18,05,09,0.60
2020,03,18,05,10,0.60
2020,03,18,05,11,0.60
2020,03,18,05,12,0.60
2020,03,18,05,13,0.60
2020,03,18,05,14,0.60
2020,03,18,05,15,0.60
2020,03,18,05,16,0.60
2020,03,18,05,17,0.60
2020,03,18,05,18,0.60
2020,03,18,05,19,0.60
2020,03,18,05,20,0.60
2020,03,18,05,21,0.60
2020,03,18,05,22,0.60
2020,03,18,05,23,0.60
2020,03,18,05,24,0.50
2020,03,18,05,25,0.50
2020,03,18,05,26,0.50
2020,03,18,05,27,0.50
2020,03,18,05,28,0.50
2020,03,18,05,29,0.50
2020,03,18,05,30,0.50
2020,03,18,05,31,0.40
2020,03,18,05,32,0.40
2020,03,18,05,33,0.40
2020,03,18,05,34,0.40
2020,03,18,05,35,0.40
2020,03,18,05,36,0.40
2020,03,18,05,37,0.40
2020,03,18,05,38,0.40
2020,03,18,05,39,0.40
2020,03,18,05,40,0.40
2020,03,18,05,41,0.40
2020,03,18,05,42,0.40
2020,03,18,05,43,0.40
2020,03,18,05,44,0.40
2020,03,18,05,45,0.40
2020,03,18,05,46,0.40
2020,03,18,05,47,0.40
2020,03,18,05,48,0.40
2020,03,18,05,49,0.40
2020,03,18,05,50,0.40
2020,03,18,05,51,0.40
2020,03,18,05,52,0.40
2020,03,18,05,53,0.40
2020,03,18,05,54,0.30
2020,03,18,05,55,0.30
2020,03,18,05,56,0.30
2020,03,18,05,57,0.30
2020,03,18,05,58,0.30
2020,03,18,05,59,0.30
2020,03,18,06,00,0.30
2020,03,18,06,01,0.30
2020,03,18,06,02,0.30
2020,03,18,06,03,0.30
2020,03,18,06,04,0.30
2020,03,18,06,05,0.30
2020,03,18,06,06,0.20
2020,03,18,06,07,0.20
2020,03,18,06,08,0.20
2020,03,18,06,09,0.20
2020,03,18,06,10,0.20
2020,03,18,06,11,0.20
2020,03,18,06,12,0.20
2020,03,18,06,13,0.10
2020,03,18,06,14,0.10
2020,03,18,06,15,0.10
2020,03,18,06,16,0.10
2020,03,18,06,17,0.10
2020,03,18,06,18,0.10
2020,03,18,06,19,0.10
2020,03,18,06,20,0.10
2020,03,18,06,21,0.00
2020,03,18,06,22,0.00
2020,03,18,06,23,0.00
2020,03,18,06,24,0.00
2020,03,18,06,25,0.00
2020,03,18,06,26,0.00
2020,03,18,06,27,0.00
2020,03,18,06,28,0.00
2020,03,18,06,29,0.00
2020,03,18,06,30,0.00
2020,03,18,06,31,0.00
2020,03,18,06,32,0.00
2020,03,18,06,33,0.00
2020,03,18,06,34,0.00
2020,03,18,06,35,0.10
2020,03,18,06,36,0.10
2020,03,18,06,37,0.10
2020,03,18,06,38,0.10
2020,03,18,06,39,0.10
2020,03,18,06,40,0.10
2020,03,18,06,41,0.10
2020,03,18,06,42,0.10
2020,03,18,06,43,0.10
2020,03,18,06,44,0.10
2020,03,18,06,45,0.10
2020,03,18,06,46,0.10
2020,03,18,06,47,0.10
2020,03,18,06,48,0.10
2020,03,18,06,49,0.10
2020,03,18,06,50,0.10
2020,03,18,06,51,0.10
2020,03,18,06,52,0.10
2020,03,18,06,53,0.10
2020,03,18,06,54,0.10
2020,03,18,06,55,0.10
2020,03,18,06,56,0.10
2020,03,18,06,57,0.10
2020,03,18,06,58,0.10
2020,03,18,06,59,0.10
2020,03,18,07,00,0.10
2020,03,18,07,01,0.10
2020,03,18,07,02,0.10
2020,03,18,07,03,0.10
2020,03,18,07,04,0.10
2020,03,18,07,05,0.10
2020,03,18,07,06,0.10
2020,03,18,07,07,0.10
2020,03,18,07,08,0.10
2020,03,18,07,09,0.10
2020,03,18,07,10,0.10
2020,03,18,07,11,0.10
2020,03,18,07,12,0.10
2020,03,18,07,13,0.10
2020,03,18,07,14,0.10
2020,03,18,07,15,0.00
2020,03,18,07,16,0.00
2020,03,18,07,17,0.00
2020,03,18,07,18,0.00
2020,03,18,07,19,0.00
2020,03,18,07,20,0.00
2020,03,18,07,21,0.00
2020,03,18,07,22,0.00
2020,03,18,07,23,0.00
2020,03,18,07,24,-0.10
2020,03,18,07,25,-0.10
2020,03,18,07,26,-0.10
2020,03,18,07,27,-0.10
2020,03,18,07,28,0.00
2020,03,18,07,29,0.00
2020,03,18,07,30,0.00
2020,03,18,07,31,0.00
2020,03,18,07,32,0.00
2020,03,18,07,33,0.00
2020,03,18,07,34,0.00
2020,03,18,07,35,0.00
2020,03,18,07,36,0.00
2020,03,18,07,37,0.10
2020,03,18,07,38,0.10
2020,03,18,07,39,0.10
2020,03,18,07,40,0.10
2020,03,18,07,41,0.10
2020,03,18,07,42,0.10
2020,03,18,07,43,0.10
2020,03,18,07,44,0.10
2020,03,18,07,45,0.20
2020,03,18,07,46,0.20
2020,03,18,07,47,0.20
2020,03,18,07,48,0.20
2020,03,18,07,49,0.20
2020,03,18,07,50,0.20
2020,03,18,07,51,0.30
2020,03,18,07,52,0.30
2020,03,18,07,53,0.30
2020,03,18,07,54,0.30
2020,03,18,07,55,0.30
2020,03,18,07,56,0.30
2020,03,18,07,57,0.30
2020,03,18,07,58,0.40
2020,03,18,07,59,0.40
2020,03,18,08,00,0.40
2020,03,18,08,01,0.40
2020,03,18,08,02,0.40
2020,03,18,08,03,0.40
2020,03,18,08,04,0.50
2020,03,18,08,05,0.50
2020,03,18,08,06,0.60
2020,03,18,08,07,0.60
2020,03,18,08,08,0.60
2020,03,18,08,09,0.60
2020,03,18,08,10,0.70
2020,03,18,08,11,0.70
2020,03,18,08,12,0.80
2020,03,18,08,13,0.80
2020,03,18,08,14,0.80
2020,03,18,08,15,0.90
2020,03,18,08,16,0.90
2020,03,18,08,17,1.00
2020,03,18,08,18,1.10
2020,03,18,08,19,1.10
2020,03,18,08,20,1.20
2020,03,18,08,21,1.20
2020,03,18,08,22,1.30
2020,03,18,08,23,1.30
2020,03,18,08,24,1.40
2020,03,18,08,25,1.50
2020,03,18,08,26,1.60
2020,03,18,08,27,1.60
2020,03,18,08,28,1.70
2020,03,18,08,29,1.70
2020,03,18,08,30,1.80
2020,03,18,08,31,1.90
2020,03,18,08,32,1.90
2020,03,18,08,33,2.00
2020,03,18,08,34,2.10
2020,03,18,08,35,2.10
2020,03,18,08,36,2.20
2020,03,18,08,37,2.20
2020,03,18,08,38,2.30
2020,03,18,08,39,2.30
2020,03,18,08,40,2.40
2020,03,18,08,41,2.50
2020,03,18,08,42,2.50
2020,03,18,08,43,2.60
2020,03,18,08,44,2.70
2020,03,18,08,45,2.80
2020,03,18,08,46,3.00
2020,03,18,08,47,3.10
2020,03,18,08,48,3.20
2020,03,18,08,49,3.30
2020,03,18,08,50,3.40
2020,03,18,08,51,3.50
2020,03,18,08,52,3.50
2020,03,18,08,53,3.60
2020,03,18,08,54,3.70
2020,03,18,08,55,3.80
2020,03,18,08,56,3.90
2020,03,18,08,57,4.00
2020,03,18,08,58,4.20
2020,03,18,08,59,4.20
2020,03,18,09,00,4.30
2020,03,18,09,01,4.40
2020,03,18,09,02,4.40
2020,03,18,09,03,4.60
2020,03,18,09,04,4.70
2020,03,18,09,05,4.70
2020,03,18,09,06,4.80
2020,03,18,09,07,4.90
2020,03,18,09,08,4.90
2020,03,18,09,09,5.00
2020,03,18,09,10,5.00
2020,03,18,09,11,5.10
2020,03,18,09,12,5.20
2020,03,18,09,13,5.20
2020,03,18,09,14,5.30
2020,03,18,09,15,5.40
2020,03,18,09,16,5.40
2020,03,18,09,17,5.50
2020,03,18,09,18,5.60
2020,03,18,09,19,5.60
2020,03,18,09,20,5.70
2020,03,18,09,21,5.80
2020,03,18,09,22,5.80
2020,03,18,09,23,5.90
2020,03,18,09,24,6.00
2020,03,18,09,25,6.00
2020,03,18,09,26,6.10
2020,03,18,09,27,6.10
2020,03,18,09,28,6.20
2020,03,18,09,29,6.30
2020,03,18,09,30,6.30
2020,03,18,09,31,6.40
2020,03,18,09,32,6.50
2020,03,18,09,33,6.70
2020,03,18,09,34,6.80
2020,03,18,09,35,6.80
2020,03,18,09,36,6.90
2020,03,18,09,37,7.00
2020,03,18,09,38,7.10
2020,03,18,09,39,7.20
2020,03,18,09,40,7.30
2020,03,18,09,41,7.40
2020,03,18,09,42,7.40
2020,03,18,09,43,7.50
2020,03,18,09,44,7.60
2020,03,18,09,45,7.60
2020,03,18,09,46,7.70
2020,03,18,09,47,7.70
2020,03,18,09,48,7.80
2020,03,18,09,49,7.90
2020,03,18,09,50,8.00
2020,03,18,09,51,8.00
2020,03,18,09,52,8.10
2020,03,18,09,53,8.20
2020,03,18,09,54,8.30
2020,03,18,09,55,8.30
2020,03,18,09,56,8.40
2020,03,18,09,57,8.40
2020,03,18,09,58,8.50
2020,03,18,09,59,8.50
2020,03,18,10,00,8.60
2020,03,18,10,01,8.60
2020,03,18,10,02,8.70
2020,03,18,10,03,8.70
2020,03,18,10,04,8.70
2020,03,18,10,05,8.80
2020,03,18,10,06,8.80
2020,03,18,10,07,8.80
2020,03,18,10,08,8.90
2020,03,18,10,09,8.90
2020,03,18,10,10,9.00
2020,03,18,10,11,9.00
2020,03,18,10,12,9.00
2020,03,18,10,13,9.10
2020,03,18,10,14,9.10
2020,03,18,10,15,9.10
2020,03,18,10,16,9.10
2020,03,18,10,17,9.10
2020,03,18,10,18,9.20
2020,03,18,10,19,9.20
2020,03,18,10,20,9.30
2020,03,18,10,21,9.30
2020,03,18,10,22,9.30
2020,03,18,10,23,9.40
2020,03,18,10,24,9.40
2020,03,18,10,25,9.40
2020,03,18,10,26,9.50
2020,03,18,10,27,9.50
2020,03,18,10,28,9.60
2020,03,18,10,29,9.60
2020,03,18,10,30,9.70
2020,03,18,10,31,9.70
2020,03,18,10,32,9.70
2020,03,18,10,33,9.80
2020,03,18,10,34,9.80
2020,03,18,10,35,9.80
2020,03,18,10,36,9.90
2020,03,18,10,37,9.90
2020,03,18,10,38,9.90
2020,03,18,10,39,10.00
2020,03,18,10,40,10.00
2020,03,18,10,41,10.10
2020,03,18,10,42,10.10
2020,03,18,10,43,10.10
2020,03,18,10,44,10.20
2020,03,18,10,45,10.20
2020,03,18,10,46,10.30
2020,03,18,10,47,10.30
2020,03,18,10,48,10.40
2020,03,18,10,49,10.40
2020,03,18,10,50,10.50
2020,03,18,10,51,10.50
2020,03,18,10,52,10.60
2020,03,18,10,53,10.70
2020,03,18,10,54,10.70
2020,03,18,10,55,10.80
2020,03,18,10,56,10.80
2020,03,18,10,57,10.90
2020,03,18,10,58,10.90
2020,03,18,10,59,11.00
2020,03,18,11,00,11.00
2020,03,18,11,01,11.10
2020,03,18,11,02,11.10
2020,03,18,11,03,11.20
2020,03,18,11,04,11.20
2020,03,18,11,05,11.20
2020,03,18,11,06,11.30
2020,03,18,11,07,11.30
2020,03,18,11,08,11.40
2020,03,18,11,09,11.40
2020,03,18,11,10,11.50
2020,03,18,11,11,11.50
2020,03,18,11,12,11.60
2020,03,18,11,13,11.60
2020,03,18,11,14,11.60
2020,03,18,11,15,11.50
2020,03,18,11,16,11.50
2020,03,18,11,17,11.40
2020,03,18,11,18,11.40
2020,03,18,11,19,11.50
2020,03,18,11,20,11.50
2020,03,18,11,21,11.60
2020,03,18,11,22,11.60
2020,03,18,11,23,11.60
2020,03,18,11,24,11.70
2020,03,18,11,25,11.70
2020,03,18,11,26,11.70
2020,03,18,11,27,11.70
2020,03,18,11,28,11.70
2020,03,18,11,29,11.70
2020,03,18,11,30,11.70
2020,03,18,11,31,11.70
2020,03,18,11,32,11.70
2020,03,18,11,33,11.70
2020,03,18,11,34,11.70
2020,03,18,11,35,11.70
2020,03,18,11,36,11.70
2020,03,18,11,37,11.70
2020,03,18,11,38,11.70
2020,03,18,11,39,11.80
2020,03,18,11,40,11.80
2020,03,18,11,41,11.80
2020,03,18,11,42,11.80
2020,03,18,11,43,11.80
2020,03,18,11,44,11.80
2020,03,18,11,45,11.80
2020,03,18,11,46,11.80
2020,03,18,11,47,11.80
2020,03,18,11,48,11.70
2020,03,18,11,49,11.70
2020,03,18,11,50,11.70
2020,03,18,11,51,11.70
2020,03,18,11,52,11.80
2020,03,18,11,53,11.80
2020,03,18,11,54,11.80
2020,03,18,11,55,11.80
2020,03,18,11,56,11.70
2020,03,18,11,57,11.70
2020,03,18,11,58,11.60
2020,03,18,11,59,11.60
2020,03,18,12,00,11.60
2020,03,18,12,01,11.60
2020,03,18,12,02,11.70
2020,03,18,12,03,11.70
2020,03,18,12,04,11.80
2020,03,18,12,05,11.90
2020,03,18,12,06,12.00
2020,03,18,12,07,12.00
2020,03,18,12,08,12.10
2020,03,18,12,09,12.20
2020,03,18,12,10,12.30
2020,03,18,12,11,12.30
2020,03,18,12,12,12.30
2020,03,18,12,13,12.30
2020,03,18,12,14,12.30
2020,03,18,12,15,12.30
2020,03,18,12,16,12.30
2020,03,18,12,17,12.30
2020,03,18,12,18,12.40
2020,03,18,12,19,12.40
2020,03,18,12,20,12.40
2020,03,18,12,21,12.30
2020,03,18,12,22,12.30
2020,03,18,12,23,12.30
2020,03,18,12,24,12.30
2020,03,18,12,25,12.30
2020,03,18,12,26,12.30
2020,03,18,12,27,12.30
2020,03,18,12,28,12.30
2020,03,18,12,29,12.30
2020,03,18,12,30,12.40
2020,03,18,12,31,12.40
2020,03,18,12,32,12.40
2020,03,18,12,33,12.40
2020,03,18,12,34,12.40
2020,03,18,12,35,12.40
2020,03,18,12,36,12.40
2020,03,18,12,37,12.50
2020,03,18,12,38,12.60
2020,03,18,12,39,12.70
2020,03,18,12,40,12.70
2020,03,18,12,41,12.70
2020,03,18,12,42,12.70
2020,03,18,12,43,12.80
2020,03,18,12,44,12.80
2020,03,18,12,45,12.80
2020,03,18,12,46,12.90
2020,03,18,12,47,12.90
2020,03,18,12,48,12.90
2020,03,18,12,49,13.00
2020,03,18,12,50,13.00
2020,03,18,12,51,13.10
2020,03,18,12,52,13.20
2020,03,18,12,53,13.30
2020,03,18,12,54,13.30
2020,03,18,12,55,13.30
2020,03,18,12,56,13.30
2020,03,18,12,57,13.20
2020,03,18,12,58,13.20
2020,03,18,12,59,13.10
2020,03,18,13,00,13.10
2020,03,18,13,01,13.10
2020,03,18,13,02,13.10
2020,03,18,13,03,13.10
2020,03,18,13,04,13.10
2020,03,18,13,05,13.20
2020,03,18,13,06,13.20
2020,03,18,13,07,13.30
2020,03,18,13,08,13.30
2020,03,18,13,09,13.30
2020,03,18,13,10,13.30
2020,03,18,13,11,13.30
2020,03,18,13,12,13.30
2020,03,18,13,13,13.30
2020,03,18,13,14,13.30
2020,03,18,13,15,13.20
2020,03,18,13,16,13.20
2020,03,18,13,17,13.10
2020,03,18,13,18,13.10
2020,03,18,13,19,13.10
2020,03,18,13,20,13.10
2020,03,18,13,21,13.10
2020,03,18,13,22,13.10
2020,03,18,13,23,13.10
2020,03,18,13,24,13.10
2020,03,18,13,25,13.10
2020,03,18,13,26,13.20
2020,03,18,13,27,13.30
2020,03,18,13,28,13.30
2020,03,18,13,29,13.30
2020,03,18,13,30,13.40
2020,03,18,13,31,13.30
2020,03,18,13,32,13.30
2020,03,18,13,33,13.30
2020,03,18,13,34,13.20
2020,03,18,13,35,13.20
2020,03,18,13,36,13.30
2020,03,18,13,37,13.30
2020,03,18,13,38,13.30
2020,03,18,13,39,13.30
2020,03,18,13,40,13.30
2020,03,18,13,41,13.30
2020,03,18,13,42,13.20
2020,03,18,13,43,13.20
2020,03,18,13,44,13.10
2020,03,18,13,45,13.10
2020,03,18,13,46,13.20
2020,03,18,13,47,13.20
2020,03,18,13,48,13.20
2020,03,18,13,49,13.20
2020,03,18,13,50,13.20
2020,03,18,13,51,13.20
2020,03,18,13,52,13.20
2020,03,18,13,53,13.20
2020,03,18,13,54,13.20
2020,03,18,13,55,13.30
2020,03,18,13,56,13.30
2020,03,18,13,57,13.30
2020,03,18,13,58,13.30
2020,03,18,13,59,13.30
2020,03,18,14,00,13.30
2020,03,18,14,01,13.30
2020,03,18,14,02,13.40
2020,03,18,14,03,13.50
2020,03,18,14,04,13.60
2020,03,18,14,05,13.70
2020,03,18,14,06,13.70
2020,03,18,14,07,13.70
2020,03,18,14,08,13.70
2020,03,18,14,09,13.80
2020,03,18,14,10,13.80
2020,03,18,14,11,13.80
2020,03,18,14,12,13.80
2020,03,18,14,13,13.70
2020,03,18,14,14,13.70
2020,03,18,14,15,13.70
2020,03,18,14,16,13.70
2020,03,18,14,17,13.80
2020,03,18,14,18,13.80
2020,03,18,14,19,13.80
2020,03,18,14,20,13.80
2020,03,18,14,21,13.80
2020,03,18,14,22,13.80
2020,03,18,14,23,13.80
2020,03,18,14,24,13.80
2020,03,18,14,25,13.90
2020,03,18,14,26,13.90
2020,03,18,14,27,14.00
2020,03,18,14,28,14.00
2020,03,18,14,29,14.00
2020,03,18,14,30,14.00
2020,03,18,14,31,14.00
2020,03,18,14,32,14.10
2020,03,18,14,33,14.10
2020,03,18,14,34,14.10
2020,03,18,14,35,14.10
2020,03,18,14,36,14.10
2020,03,18,14,37,14.00
2020,03,18,14,38,13.90
2020,03,18,14,39,13.90
2020,03,18,14,40,13.90
2020,03,18,14,41,14.00
2020,03,18,14,42,14.00
2020,03,18,14,43,14.00
2020,03,18,14,44,14.00
2020,03,18,14,45,14.10
2020,03,18,14,46,14.10
2020,03,18,14,47,14.20
2020,03,18,14,48,14.20
2020,03,18,14,49,14.20
2020,03,18,14,50,14.20
2020,03,18,14,51,14.10
2020,03,18,14,52,14.10
2020,03,18,14,53,14.10
2020,03,18,14,54,14.00
2020,03,18,14,55,14.00
2020,03,18,14,56,14.00
2020,03,18,14,57,13.90
2020,03,18,14,58,13.90
2020,03,18,14,59,13.90
2020,03,18,15,00,13.80
2020,03,18,15,01,13.80
2020,03,18,15,02,13.80
2020,03,18,15,03,13.80
2020,03,18,15,04,13.80
2020,03,18,15,05,13.80
2020,03,18,15,06,13.90
2020,03,18,15,07,13.90
2020,03,18,15,08,13.90
2020,03,18,15,09,14.00
2020,03,18,15,10,14.00
2020,03,18,15,11,14.10
2020,03,18,15,12,14.10
2020,03,18,15,13,14.20
2020,03,18,15,14,14.20
2020,03,18,15,15,14.20
2020,03,18,15,16,14.30
2020,03,18,15,17,14.30
2020,03,18,15,18,14.30
2020,03,18,15,19,14.40
2020,03,18,15,20,14.40
2020,03,18,15,21,14.40
2020,03,18,15,22,14.50
2020,03,18,15,23,14.50
2020,03,18,15,24,14.40
2020,03,18,15,25,14.50
2020,03,18,15,26,14.50
2020,03,18,15,27,14.50
2020,03,18,15,28,14.50
2020,03,18,15,29,14.50
2020,03,18,15,30,14.50
2020,03,18,15,31,14.50
2020,03,18,15,32,14.60
2020,03,18,15,33,14.60
2020,03,18,15,34,14.60
2020,03,18,15,35,14.60
2020,03,18,15,36,14.60
2020,03,18,15,37,14.50
2020,03,18,15,38,14.50
2020,03,18,15,39,14.50
2020,03,18,15,40,14.50
2020,03,18,15,41,14.50
2020,03,18,15,42,14.50
2020,03,18,15,43,14.50
2020,03,18,15,44,14.40
2020,03,18,15,45,14.40
2020,03,18,15,46,14.40
2020,03,18,15,47,14.40
2020,03,18,15,48,14.40
2020,03,18,15,49,14.40
2020,03,18,15,50,14.40
2020,03,18,15,51,14.50
2020,03,18,15,52,14.50
2020,03,18,15,53,14.50
2020,03,18,15,54,14.60
2020,03,18,15,55,14.60
2020,03,18,15,56,14.60
2020,03,18,15,57,14.60
2020,03,18,15,58,14.60
2020,03,18,15,59,14.60
2020,03,18,16,00,14.60
2020,03,18,16,01,14.60
2020,03,18,16,02,14.60
2020,03,18,16,03,14.60
2020,03,18,16,04,14.70
2020,03,18,16,05,14.70
2020,03,18,16,06,14.70
2020,03,18,16,07,14.80
2020,03,18,16,08,14.80
2020,03,18,16,09,14.80
2020,03,18,16,10,14.80
2020,03,18,16,11,14.80
2020,03,18,16,12,14.80
2020,03,18,16,13,14.80
2020,03,18,16,14,14.90
2020,03,18,16,15,14.90
2020,03,18,16,16,14.90
2020,03,18,16,17,14.90
2020,03,18,16,18,14.80
2020,03,18,16,19,14.80
2020,03,18,16,20,14.80
2020,03,18,16,21,14.70
2020,03,18,16,22,14.70
2020,03,18,16,23,14.70
2020,03,18,16,24,14.60
2020,03,18,16,25,14.60
2020,03,18,16,26,14.60
2020,03,18,16,27,14.50
2020,03,18,16,28,14.50
2020,03,18,16,29,14.60
2020,03,18,16,30,14.60
2020,03,18,16,31,14.60
2020,03,18,16,32,14.60
2020,03,18,16,33,14.60
2020,03,18,16,34,14.60
2020,03,18,16,35,14.60
2020,03,18,16,36,14.60
2020,03,18,16,37,14.60
2020,03,18,16,38,14.60
2020,03,18,16,39,14.60
2020,03,18,16,40,14.60
2020,03,18,16,41,14.60
2020,03,18,16,42,14.70
2020,03,18,16,43,14.70
2020,03,18,16,44,14.70
2020,03,18,16,45,14.70
2020,03,18,16,46,14.70
2020,03,18,16,47,14.70
2020,03,18,16,48,14.70
2020,03,18,16,49,14.80
2020,03,18,16,50,14.80
2020,03,18,16,51,14.80
2020,03,18,16,52,14.80
2020,03,18,16,53,14.80
2020,03,18,16,54,14.80
2020,03,18,16,55,14.80
2020,03,18,16,56,14.90
2020,03,18,16,57,14.90
2020,03,18,16,58,14.90
2020,03,18,16,59,14.90
2020,03,18,17,00,14.90
2020,03,18,17,01,14.90
2020,03,18,17,02,14.90
2020,03,18,17,03,14.90
2020,03,18,17,04,14.90
2020,03,18,17,05,14.80
2020,03,18,17,06,14.80
2020,03,18,17,07,14.80
2020,03,18,17,08,14.70
2020,03,18,17,09,14.70
2020,03,18,17,10,14.70
2020,03,18,17,11,14.80
2020,03,18,17,12,14.80
2020,03,18,17,13,14.80
2020,03,18,17,14,14.80
2020,03,18,17,15,14.80
2020,03,18,17,16,14.80
2020,03,18,17,17,14.80
2020,03,18,17,18,14.80
2020,03,18,17,19,14.70
2020,03,18,17,20,14.70
2020,03,18,17,21,14.60
2020,03,18,17,22,14.60
2020,03,18,17,23,14.50
2020,03,18,17,24,14.40
2020,03,18,17,25,14.40
2020,03,18,17,26,14.40
2020,03,18,17,27,14.30
2020,03,18,17,28,14.30
2020,03,18,17,29,14.30
2020,03,18,17,30,14.30
2020,03,18,17,31,14.40
2020,03,18,17,32,14.40
2020,03,18,17,33,14.40
2020,03,18,17,34,14.40
2020,03,18,17,35,14.40
2020,03,18,17,36,14.50
2020,03,18,17,37,14.50
2020,03,18,17,38,14.50
2020,03,18,17,39,14.50
2020,03,18,17,40,14.60
2020,03,18,17,41,14.60
2020,03,18,17,42,14.60
2020,03,18,17,43,14.60
2020,03,18,17,44,14.60
2020,03,18,17,45,14.60
2020,03,18,17,46,14.60
2020,03,18,17,47,14.60